Date String (YYYY-MM-DD hh:mm:ss) UTC,Instrument flags,Ambient pressure (hPa),Sample flow (lpm),Bypass flow (lpm),Sample temperature (°C),Ambient temperature (°C),ASC tube jacket temperature (°C),LED temperature (°C),Box temperature (°C),Sample RH (%),Span deviation,Mass concentration (μg/m³),Mass concentration (μg/m³),Mass concentration (μg/m³)
DateTimeUTC,F1_M11,P_M11,Q1_M11,Q2_M11,T1_M11,T2_M11,T3_M11,T4_M11,T5_M11,U1_M11,ZSPAN_M11,X0_M11,X2_M11,X1_M11
2023-05-30 06:00:00,,0830.2,5.00,0.00,29.5,27.4,00.0,37.9,31.1,22.9,0000.0,0011.08,0004.45,0003.51
2023-05-30 06:01:00,,0830.1,5.00,0.00,29.5,27.6,00.0,37.9,31.1,22.9,0000.0,0010.98,0004.48,0003.52
2023-05-30 06:02:00,,0830.1,5.00,0.00,29.5,27.7,00.0,37.9,31.1,23.0,0000.0,0010.84,0004.53,0003.54
2023-05-30 06:03:00,,0830.1,5.00,0.00,29.5,27.8,00.0,37.9,31.2,23.0,0000.0,0010.90,0004.56,0003.54
2023-05-30 06:04:00,,0830.1,5.00,0.00,29.5,27.9,00.0,37.9,31.2,23.0,0000.0,0010.73,0004.53,0003.55
2023-05-30 06:05:00,,0830.1,5.00,0.00,29.6,27.9,00.0,37.9,31.2,23.0,0000.0,0010.67,0004.53,0003.54
2023-05-30 06:06:00,,0830.1,4.99,0.00,29.6,28.0,00.0,37.9,31.2,23.0,0000.0,0010.93,0004.59,0003.55
2023-05-30 06:07:00,,0830.1,5.00,0.00,29.6,28.1,00.0,37.9,31.2,23.0,0000.0,0010.85,0004.61,0003.55
2023-05-30 06:08:00,,0830.1,5.00,0.00,29.6,28.1,00.0,37.9,31.3,23.0,0000.0,0010.64,0004.58,0003.56
2023-05-30 06:09:00,,0830.1,5.00,0.00,29.6,28.1,00.0,37.9,31.3,23.0,0000.0,0011.09,0004.58,0003.58
2023-05-30 06:10:00,,0830.1,5.00,0.00,29.7,28.2,00.0,38.0,31.3,23.1,0000.0,0010.47,0004.61,0003.58
2023-05-30 06:11:00,,0830.1,5.00,0.00,29.7,28.2,00.0,38.0,31.3,23.1,0000.0,0011.33,0004.58,0003.58
2023-05-30 06:12:00,,0830.1,5.00,0.00,29.7,28.2,00.0,38.0,31.4,23.1,0000.0,0011.98,0004.60,0003.59
2023-05-30 06:13:00,,0830.1,5.00,0.00,29.7,28.3,00.0,38.0,31.4,23.1,0000.0,0012.10,0004.59,0003.59
2023-05-30 06:14:00,,0830.1,5.00,0.00,29.7,28.3,00.0,38.0,31.4,23.1,0000.0,0012.08,0004.58,0003.59
2023-05-30 06:15:00,,0830.1,5.00,0.00,29.7,28.3,00.0,38.0,31.4,23.0,0000.0,0012.72,0004.62,0003.60
2023-05-30 06:16:00,,0830.1,5.00,0.00,29.8,28.3,00.0,38.0,31.4,23.0,0000.0,0013.25,0004.62,0003.59
2023-05-30 06:17:00,,0830.1,5.00,0.00,29.8,28.3,00.0,38.0,31.4,22.9,0000.0,0013.66,0004.60,0003.59
2023-05-30 06:18:00,,0830.1,5.00,0.00,29.8,28.3,00.0,38.1,31.4,22.9,0000.0,0013.36,0004.59,0003.60
2023-05-30 06:19:00,,0830.1,5.00,0.00,29.8,28.4,00.0,38.1,31.5,22.9,0000.0,0013.28,0004.59,0003.60
2023-05-30 06:20:00,,0830.1,5.00,0.00,29.8,28.4,00.0,38.1,31.5,22.9,0000.0,0013.35,0004.58,0003.59
2023-05-30 06:21:00,,0830.1,5.01,0.00,29.8,28.4,00.0,38.1,31.5,22.9,0000.0,0013.16,0004.57,0003.59
2023-05-30 06:22:00,,0830.2,5.00,0.00,29.8,28.4,00.0,38.1,31.5,22.9,0000.0,0013.22,0004.63,0003.60
2023-05-30 06:23:00,,0830.1,5.00,0.00,29.9,28.4,00.0,38.1,31.5,22.9,0000.0,0012.54,0004.62,0003.60
2023-05-30 06:24:00,,0830.1,5.00,0.00,29.9,28.5,00.0,38.2,31.5,22.9,0000.0,0013.90,0004.64,0003.59
2023-05-30 06:25:00,,0830.1,5.00,0.00,29.9,28.5,00.0,38.2,31.5,22.8,0000.0,0014.22,0004.66,0003.59
2023-05-30 06:26:00,,0830.1,4.99,0.00,29.9,28.5,00.0,38.2,31.6,22.8,0000.0,0014.02,0004.65,0003.59
2023-05-30 06:27:00,,0830.2,5.00,0.00,29.9,28.5,00.0,38.2,31.6,22.9,0000.0,0013.93,0004.62,0003.60
2023-05-30 06:28:00,,0830.1,5.00,0.00,29.9,28.5,00.0,38.2,31.6,23.0,0000.0,0013.13,0004.60,0003.61
2023-05-30 06:29:00,,0830.2,5.00,0.00,30.0,28.5,00.0,38.2,31.6,23.0,0000.0,0013.36,0004.64,0003.61
2023-05-30 06:30:00,,0830.1,5.00,0.00,30.0,28.5,00.0,38.2,31.6,23.0,0000.0,0014.34,0004.67,0003.61
2023-05-30 06:31:00,,0830.1,5.00,0.00,30.0,28.5,00.0,38.2,31.6,23.0,0000.0,0014.27,0004.66,0003.61
2023-05-30 06:32:00,,0830.1,5.00,0.00,30.0,28.5,00.0,38.3,31.6,23.0,0000.0,0014.23,0004.69,0003.62
2023-05-30 06:33:00,,0830.1,5.00,0.00,30.0,28.5,00.0,38.3,31.7,23.0,0000.0,0013.88,0004.75,0003.64
2023-05-30 06:34:00,,0830.1,5.00,0.00,30.0,28.6,00.0,38.3,31.7,23.0,0000.0,0013.38,0004.78,0003.66
2023-05-30 06:35:00,,0830.2,5.00,0.00,30.0,28.6,00.0,38.3,31.7,23.0,0000.0,0011.88,0004.75,0003.67
2023-05-30 06:36:00,,0830.1,5.00,0.00,30.0,28.6,00.0,38.3,31.7,23.0,0000.0,0011.93,0004.71,0003.67
2023-05-30 06:37:00,,0830.1,5.00,0.00,30.1,28.6,00.0,38.3,31.7,23.0,0000.0,0012.00,0004.72,0003.67
2023-05-30 06:38:00,,0830.1,5.01,0.00,30.1,28.6,00.0,38.3,31.7,23.0,0000.0,0012.26,0004.70,0003.67
2023-05-30 06:39:00,,0830.1,5.00,0.00,30.1,28.6,00.0,38.4,31.7,22.9,0000.0,0012.21,0004.71,0003.67
2023-05-30 06:40:00,,0830.1,5.00,0.00,30.1,28.6,00.0,38.4,31.7,22.9,0000.0,0012.29,0004.73,0003.70
2023-05-30 06:41:00,,0830.1,5.00,0.00,30.1,28.6,00.0,38.4,31.7,22.9,0000.0,0011.46,0004.73,0003.71
2023-05-30 06:42:00,,0830.1,5.00,0.00,30.1,28.6,00.0,38.4,31.8,22.8,0000.0,0011.32,0004.78,0003.73
2023-05-30 06:43:00,,0830.1,5.00,0.00,30.1,28.6,00.0,38.4,31.8,22.8,0000.0,0012.23,0004.78,0003.73
2023-05-30 06:44:00,,0830.1,5.00,0.00,30.1,28.6,00.0,38.4,31.8,22.7,0000.0,0012.93,0004.72,0003.71
2023-05-30 06:45:00,,0830.1,5.00,0.00,30.1,28.6,00.0,38.4,31.8,22.7,0000.0,0013.24,0004.67,0003.71
2023-05-30 06:46:00,,0830.1,5.01,0.00,30.1,28.7,00.0,38.4,31.7,22.7,0000.0,0014.16,0004.69,0003.71
2023-05-30 06:47:00,,0830.1,5.01,0.00,30.2,28.7,00.0,38.5,31.7,22.7,0000.0,0014.57,0004.78,0003.73
2023-05-30 06:48:00,,0830.1,5.00,0.00,30.2,28.7,00.0,38.5,31.8,22.7,0000.0,0015.03,0004.81,0003.75
2023-05-30 06:49:00,,0830.1,5.00,0.00,30.2,28.7,00.0,38.5,31.8,22.7,0000.0,0015.09,0004.87,0003.76
2023-05-30 06:50:00,,0830.1,4.99,0.00,30.2,28.6,00.0,38.5,31.8,22.6,0000.0,0015.65,0004.93,0003.78
2023-05-30 06:51:00,,0830.1,4.99,0.00,30.2,27.0,00.0,38.4,31.6,22.5,0000.0,0015.80,0004.94,0003.78
2023-05-30 06:52:00,,0830.1,5.01,0.00,30.1,25.5,00.0,38.3,31.3,22.6,0000.0,0015.90,0004.95,0003.78
2023-05-30 06:53:00,,0830.1,5.00,0.00,29.9,25.2,00.0,38.2,31.1,22.8,0000.0,0016.59,0004.97,0003.79
2023-05-30 06:54:00,,0830.1,5.01,0.00,29.8,25.4,00.0,38.2,31.0,22.9,0000.0,0016.27,0004.94,0003.79
2023-05-30 06:55:00,,0830.1,5.00,0.00,29.7,25.8,00.0,38.2,31.0,23.0,0000.0,0015.39,0004.98,0003.81
2023-05-30 06:56:00,,0830.1,4.98,0.00,29.7,26.2,00.0,38.2,31.1,23.1,0000.0,0015.33,0005.05,0003.81
2023-05-30 06:57:00,,0830.1,5.01,0.00,29.7,26.5,00.0,38.1,31.1,23.2,0000.0,0014.66,0005.04,0003.82
2023-05-30 06:58:00,,0830.1,5.01,0.00,29.6,26.8,00.0,38.1,31.1,23.2,0000.0,0014.55,0005.07,0003.82
2023-05-30 06:59:00,,0830.1,5.00,0.00,29.6,27.1,00.0,38.1,31.1,23.2,0000.0,0015.51,0005.08,0003.80
